Regional Weather Roundup
Issued by NWS Grand Forks, ND

Home | Current Version | Previous Version | Graphics & Text | Print | Product List | Glossary On
Versions: 1 2 3 4 5 6 7 8 9 10 11 12 13 14 15 16 17 18 19 20 21 22 23 24 25 26 27 28 29 30 31 32 33 34 35 36 37 38 39 40 41 42 43 44 45 46 47 48 49 50
000
ASUS43 KFGF 241831
RWRFGF
PRAIRIE TO PINES  WEATHER ROUNDUP
NATIONAL WEATHER SERVICE EASTERN NORTH DAKOTA/GRAND FORKS ND
100 PM CDT SUN SEP 24 2017

 **SATELLITE DATA USED TO AUGMENT SKY COVER AT AUTOMATED STATIONS**
 *****  WEATHER ACROSS EASTERN NORTH DAKOTA  *****

CITY           SKY/WX    TMP DP  RH WIND       PRES   REMARKS
GRAND FORKS    RAIN      53  53 100 NW14      29.88R FOG
6HR MIN TEMP:  52; 6HR MAX TEMP:  54; 6HR PCP:  0.27;

GRAND FRKS AFB HVY RAIN  54  54 100 N12       29.91R
DEVILS LAKE    LGT RAIN  48  46  93 N17G23    29.95R
6HR MIN TEMP:  47; 6HR MAX TEMP:  48;

FARGO          LGT RAIN  56  55  97 NW9       29.85R
WAHPETON ARPT  CLOUDY    61  59  94 W9        29.85R
$$

 ***** WEATHER ACROSS CENTRAL AND WESTERN NORTH DAKOTA  *****

CITY           SKY/WX    TMP DP  RH WIND       PRES   REMARKS
BISMARCK       CLOUDY    50  48  93 N8        30.01R
6HR MIN TEMP:  49; 6HR MAX TEMP:  50; 6HR PCP:  0.17;

MINOT          CLOUDY    49  46  90 NW15      30.03F
6HR MIN TEMP:  47; 6HR MAX TEMP:  49; 6HR PCP:  0.07;

JAMESTOWN      LGT RAIN  51  49  92 N16       29.91R
6HR MIN TEMP:  49; 6HR MAX TEMP:  51; 6HR PCP:  0.54;

MINOT AFB      CLOUDY    48  45  91 N14       30.02S
GARRISON         N/A     47  43  86 N15G23    30.03S
WILLISTON      CLOUDY    47  41  80 N8        30.11R
6HR MIN TEMP:  44; 6HR MAX TEMP:  47; 6HR PCP:  0.05;

DICKINSON      CLOUDY    45  43  93 N10       30.06R
6HR MIN TEMP:  43; 6HR MAX TEMP:  45; 6HR PCP:  0.01;

HETTINGER      CLOUDY    45  43  93 N13       30.07R FOG
6HR MIN TEMP:  44; 6HR MAX TEMP:  46; 6HR PCP: TRACE;

$$

 *****  OTHER AIRPORT OBSERVATIONS IN OUR AREA  *****

CITY           SKY/WX    TMP DP  RH WIND       PRES   REMARKS
WALHALLA       RAIN     N/A N/A N/A N17G25    29.90F
GRAFTON AIRPOR NOT AVBL
VALLEY CITY AR NOT AVBL
CANDO          FAIR      48  48 100 N15       30.00R
CAVALIER APRT  LGT RAIN  50  50 100 N15G25    29.88F
GWINNER        CLOUDY    54  54 100 N9        29.87S
SHEYENNE NWR     N/A     54  54 100 N7        29.95S
ROLLA          CLOUDY    48  48 100 N17G26    29.98S
 ***** THE ABOVE OBSERVATIONS ARE NON NWS ARE NOT QUALITY
       CONTROLLED AND MAY MIS-REPORT RAIN FOR SNOW...
$$

  *****  WEATHER ACROSS NORTHERN MINNESOTA  *****

CITY           SKY/WX    TMP DP  RH WIND       PRES   REMARKS
FLAG ISLAND    DRIZZLE   57  55  94 N6        29.83S
WARROAD        NOT AVBL
ROSEAU         RAIN      57  52  82 N8        29.84F
HALLOCK          N/A     54  52  94 N18       29.86F
THF RVR FALLS  LGT RAIN  57  56  96 N7        29.83F
6HR MIN TEMP:  54; 6HR MAX TEMP:  57; 6HR PCP:  0.33;

BAUDETTE       RAIN      62  61  96 CALM      29.82F
6HR MIN TEMP:  57; 6HR MAX TEMP:  62; 6HR PCP:  0.15;

WASKISH        CLOUDY    66  64  94 SW5       29.83S
CROOKSTON      LGT RAIN  54  54 100 N9        29.85R
STEPHEN NDAWN    N/A     54  54 100 N15         N/A
GREENBUSH NDAW   N/A     54  54 100 N8          N/A
$$
  *****  WEATHER ACROSS CENTRAL AND WEST MINNESOTA  *****

CITY           SKY/WX    TMP DP  RH WIND       PRES   REMARKS
FOSSTON        RAIN      63  61  94 W8        29.83F
BEMIDJI        CLOUDY    70  65  85 S6        29.83F
6HR MIN TEMP:  59; 6HR MAX TEMP:  68;

PARK RAPIDS    FAIR      77  68  73 S15       29.83F
6HR MIN TEMP:  62; 6HR MAX TEMP:  75; 6HR PCP: TRACE;

ELBOW LAKE     CLOUDY    69  65  85 SW10      29.86R FOG
WADENA         FAIR      75  64  69 S17       29.84S
DETROIT LAKES  CLOUDY    68  63  83 SW9       29.85R
MOORHEAD       DRIZZLE   55  55 100 NW10      29.85R
FERGUS FALLS   CLOUDY    70  66  88 SW10      29.85R
MORRIS MN      NOT AVBL
STAPLES        FAIR      79  64  61 S15       29.84F
$$
  *****  WEATHER ELSEWHERE ACROSS MINNESOTA  *****

CITY           SKY/WX    TMP DP  RH WIND       PRES   REMARKS
DULUTH         FAIR      75  67  76 S12       29.92F
6HR MIN TEMP:  63; 6HR MAX TEMP:  76;

INTRNTL FALLS  LGT RAIN  70  65  84 SW7       29.84F
6HR MIN TEMP:  59; 6HR MAX TEMP:  70; 6HR PCP:  0.01;

ELY            FAIR      81  64  57 S9G20     29.89F
CLOQUET        FAIR      81  63  54 S12       29.91F
WHEATON        PTSUNNY   70  63  78 W8        29.86S
BRAINERD       FAIR      77  67  71 S13       29.87S
6HR MIN TEMP:  62; 6HR MAX TEMP:  78;

HIBBING        FAIR      78  67  68 S8G18     29.88F
6HR MIN TEMP:  58; 6HR MAX TEMP:  78;

ALEXANDRIA     FAIR      78  67  68 S15G25    29.87S
6HR MIN TEMP:  61; 6HR MAX TEMP:  78;

SAINT CLOUD    FAIR      82  68  62 S16G25    29.88F
6HR MIN TEMP:  63; 6HR MAX TEMP:  83;

MINNEAPOLIS    PTSUNNY   88  65  46 S17G25    29.91F HX  90
6HR MIN TEMP:  70; 6HR MAX TEMP:  88;

$$

  *****  WEATHER ACROSS SOUTH DAKOTA  *****

CITY           SKY/WX    TMP DP  RH WIND       PRES   REMARKS
SIOUX FALLS    CLOUDY    80  68  66 S14G24    29.86F
6HR MIN TEMP:  69; 6HR MAX TEMP:  81;

BROOKINGS      CLOUDY    72  66  81 SW13      29.88S
WATERTOWN      CLOUDY    63  60  90 SW10      29.87S
6HR MIN TEMP:  59; 6HR MAX TEMP:  66;

HURON          LGT RAIN  56  55  97 NW10      29.94R FOG
6HR MIN TEMP:  55; 6HR MAX TEMP:  57; 6HR PCP:  0.84;

SISSETON         N/A     66  61  84 SW7       29.85R
ABERDEEN       LGT RAIN  53  52  96 NW14      29.90R
6HR MIN TEMP:  53; 6HR MAX TEMP:  55; 6HR PCP:  0.21;

MITCHELL       LGT RAIN  58  57  97 W9        29.94R
PIERRE         CLOUDY    53  48  83 NW15      29.98R
6HR MIN TEMP:  50; 6HR MAX TEMP:  53;

MOBRIDGE       CLOUDY    53  48  83 N16G22    29.95R
RAPID CITY     CLOUDY    48  43  81 N16       30.06R
$$

  *****  SOME WEATHER IN NEARBY STATES *****

CITY           SKY/WX    TMP DP  RH WIND       PRES   REMARKS
GLASGOW MT     CLOUDY    52  39  61 CALM      30.11F
6HR MIN TEMP:  45; 6HR MAX TEMP:  53;

GREAT FALLS MT FAIR      51  31  46 W3        30.10S
6HR MIN TEMP:  30; 6HR MAX TEMP:  51;

CHEYENNE WY    LGT RAIN  42  40  92 E10       30.03S FOG
6HR MIN TEMP:  40; 6HR MAX TEMP:  42; 6HR PCP:  0.03;

SCOTTSBLUFF NE CLOUDY    52  43  71 NE9       30.04S
6HR MIN TEMP:  46; 6HR MAX TEMP:  52; 6HR PCP:  0.01;

OMAHA NE       PTSUNNY   87  66  49 S14       29.90F
6HR MIN TEMP:  71; 6HR MAX TEMP:  87;

DES MOINES IA  FAIR      90  64  42 S16G22    29.95F HX  91
6HR MIN TEMP:  69; 6HR MAX TEMP:  90;

DAVENPORT IA   FAIR      87  64  46 S8        30.04F
6HR MIN TEMP:  63; 6HR MAX TEMP:  87;

CHICAGO IL     FAIR      89  61  38 S9G21     30.06F
6HR MIN TEMP:  71; 6HR MAX TEMP:  90;

EAU CLAIRE WI  FAIR      87  60  40 S12       29.96F
6HR MIN TEMP:  65; 6HR MAX TEMP:  87;

LA CROSSE WI   FAIR      91  62  37 S15       29.98F HX  91
6HR MIN TEMP:  68; 6HR MAX TEMP:  91;

$$

  *****  SOME NATIONAL WEATHER *****

CITY           SKY/WX    TMP DP  RH WIND       PRES   REMARKS
LA GUARDIA NY  FAIR      88  65  46 NE7       30.04F HX  90
6HR MIN TEMP:  73; 6HR MAX TEMP:  88;

RALEIGH NC     PTSUNNY   85  62  46 NE10      30.06F
6HR MIN TEMP:  66; 6HR MAX TEMP:  85;

ATLANTA GA     FAIR      82  61  48 E7        30.06F
6HR MIN TEMP:  70; 6HR MAX TEMP:  84;

NEW ORLEANS LA PTSUNNY   83  70  64 E13       29.93S
6HR MIN TEMP:  77; 6HR MAX TEMP:  87; 6HR PCP:  0.06;

OKLAHOMA CITY  PTSUNNY   85  63  47 S14G28    29.94F
6HR MIN TEMP:  67; 6HR MAX TEMP:  86;

ALBUQUERQUE NM FAIR      66  27  23 W9        29.99F
6HR MIN TEMP:  51; 6HR MAX TEMP:  66;

SALT LAKE CITY LGT RAIN  47  42  83 NW8       29.96R
6HR MIN TEMP:  45; 6HR MAX TEMP:  48; 6HR PCP:  0.10;

LOS ANGELES CA FAIR      77  52  41 NW3       29.89F
6HR MIN TEMP:  58; 6HR MAX TEMP:  77;

BOISE ID       FAIR



USA.gov is the U.S. government's official web portal to all federal, state and local government web resources and services.